Home > Weather > Pakistan > Lahore > Past weeks

Flag for Pakistan Weather past 2 weeks in Lahore, Pakistan

55 °F


Feels Like: 55 °F
Forecast: 54 / 73 °F
Wind: No wind

Location: Lahore Airport

Current Time: Dec 2, 2015 at 7:26:13 AM

Latest Report: Dec 2, 2015 at 6:55 AM

Visibility: 0 mi

Pressure: 30.01 "Hg

Humidity: 94%

Dew point: 54 °F

Location of LahoreLocation

Historic Weather in Lahore — Graph


Lahore temperature yesterday

Maximum temperature yesterday: 73 °F (at 12:55 PM)
Minimum temperature yesterday: 54 °F (at 7:30 AM)
Average temperature yesterday: 64 °F

Past Weeks' High & Low Weather Summary

High82 °F (Nov 19, 2:55 PM)100% (Nov 30, 11:55 PM)30.18 "Hg (Nov 30, 11:55 PM)
Low50 °F (Nov 28, 6:55 AM)23% (Nov 19, 2:55 PM)29.89 "Hg (Nov 17, 3:25 PM)
Average66 °F59%30.02 "Hg
* Reported Nov 17 5:25 AM — Dec 2 5:55 AM, Lahore, Weather by CustomWeather, © 2015

Note: Actual official high and low records may vary slightly from our data, if they occured in-between our weather recording intervals... More about our weather records


Lahore weather history for previous 24 hours

Time TempWeatherWind HumidityBarometerVisibility
5:55 AM
Wed, Dec 2
55 °FFog.No wind94%29.98 "Hg1 mi
5:25 AM55 °FFog.No wind88%29.98 "Hg1 mi
4:55 AM55 °FFog.No wind88%29.98 "Hg1 mi
4:25 AM57 °FFog.No wind88%29.98 "Hg1 mi
3:55 AM57 °FFog.No wind88%29.98 "Hg1 mi
3:25 AM57 °FFog.No wind88%29.98 "Hg1 mi
2:55 AM57 °FFog.No wind88%29.98 "Hg1 mi
2:25 AM57 °FFog.No wind88%29.98 "Hg1 mi
1:55 AM57 °FFog.5 mph88%29.98 "Hg1 mi
12:55 AM59 °FFog.No wind82%29.98 "Hg1 mi
11:55 PM
Tue, Dec 1
59 °FPassing clouds.No wind82%29.98 "Hg1 mi
11:25 PM61 °FPassing clouds.No wind77%30.01 "Hg1 mi
10:55 PM61 °FPassing clouds.No wind72%30.01 "Hg1 mi
10:25 PM63 °FPassing clouds.No wind73%30.01 "Hg1 mi
9:55 PM63 °FPassing clouds.No wind73%30.01 "Hg1 mi
9:25 PM64 °FPassing clouds.No wind68%30.01 "Hg1 mi
8:55 PM66 °FPassing clouds.No wind60%29.98 "Hg1 mi
8:25 PM66 °FPassing clouds.No wind60%29.98 "Hg1 mi
7:59 PM66 °FPassing clouds.No wind60%29.98 "Hg1 mi
7:25 PM66 °FPassing clouds.No wind60%29.98 "Hg1 mi
6:55 PM68 °FPassing clouds.No wind56%29.98 "Hg1 mi
6:25 PM68 °FPassing clouds.No wind56%29.98 "Hg1 mi
5:55 PM70 °FPassing clouds.No wind53%29.95 "Hg1 mi
5:25 PM72 °FPassing clouds.No wind50%29.95 "Hg1 mi
4:55 PM72 °FPassing clouds.No wind50%29.95 "Hg1 mi
4:25 PM73 °FHaze.No wind47%29.95 "Hg1 mi
3:55 PM73 °FHaze.No wind47%29.95 "Hg1 mi
3:25 PM73 °FHaze.3 mph44%29.95 "Hg1 mi
2:55 PM73 °FHaze.3 mph44%29.98 "Hg1 mi
2:25 PM73 °FHaze.No wind50%29.98 "Hg1 mi
1:55 PM73 °FHaze.5 mph50%29.98 "Hg1 mi
12:55 PM73 °FHaze.No wind50%30.01 "Hg1 mi
11:55 AM70 °FClear.No wind53%30.04 "Hg1 mi
11:25 AM68 °FClear.No wind56%30.07 "Hg1 mi
10:55 AM66 °FClear.No wind60%30.07 "Hg1 mi
10:25 AM64 °FClear.No wind68%30.07 "Hg1 mi
9:59 AM63 °FClear.No wind68%30.07 "Hg1 mi
9:25 AM61 °FClear.No wind72%30.07 "Hg1 mi
8:59 AM59 °FClear.No wind72%30.07 "Hg1 mi
8:30 AM55 °FFog.No wind82%30.04 "Hg1 mi
8:00 AM55 °FFog.No wind82%30.04 "Hg1 mi
7:30 AM54 °FFog.No wind88%30.04 "Hg1 mi
Weather by CustomWeather, © 2015

See weather overviewHow to use our weather pages